This is the latest recevied weather packets stored in our database for station/object W6DSP. If no packets are shown the sender has not sent any weather packets the latest 10 day(s).
| Time | Temp. | Humidity | Pressure | Rain* | Wind** | Luminosity | Snow |
|---|---|---|---|---|---|---|---|
| 1777621349 | 8.33° C | 90% | 1013.3 hPa | 1.52 mm | - | - | - |
| 1777620597 | 8.33° C | 89% | 1013.4 hPa | 2.03 mm | - | - | - |
| 1777619888 | 8.33° C | 90% | 1013.5 hPa | 1.52 mm | - | - | - |
| 1777619162 | 8.33° C | 90% | 1013.5 hPa | 0 mm | - | - | - |
| 1777617691 | 8.33° C | 89% | 1013.8 hPa | 1.02 mm | - | - | - |
| 1777616991 | 8.89° C | 89% | 1014 hPa | 1.52 mm | - | - | - |
| 1777616238 | 8.89° C | 89% | 1014.1 hPa | 1.27 mm | - | - | - |
| 1777615516 | 8.89° C | 89% | 1014.3 hPa | 2.29 mm | - | - | - |
| 1777614764 | 8.89° C | 89% | 1014.5 hPa | 0 mm | - | - | - |
| 1777614062 | 8.89° C | 88% | 1014.4 hPa | 0 mm | - | - | - |
| 1777613321 | 8.89° C | 88% | 1014.6 hPa | 0 mm | - | - | - |
| 1777612588 | 8.89° C | 87% | 1014.7 hPa | 0 mm | - | - | - |
| 1777611151 | 8.89° C | 86% | 1014.8 hPa | 0 mm | - | - | - |
| 1777610418 | 8.89° C | 86% | 1015 hPa | 0 mm | - | - | - |
| 1777609708 | 8.89° C | 85% | 1015.1 hPa | 0 mm | - | - | - |
| 1777608949 | 9.44° C | 84% | 1015.2 hPa | 0 mm | - | - | - |
| 1777608242 | 9.44° C | 81% | 1015.2 hPa | 0 mm | - | - | - |
| 1777607498 | 10° C | 79% | 1015.3 hPa | 0 mm | - | - | - |
| 1777606742 | 10° C | 76% | 1015.2 hPa | 0 mm | - | - | - |
| 1777605992 | 10.56° C | 74% | 1015.2 hPa | 0 mm | - | - | - |
| 1777605269 | 11.11° C | 71% | 1015.3 hPa | 0 mm | - | - | - |
| 1777604552 | 11.11° C | 69% | 1015.4 hPa | 0 mm | - | - | - |
| 1777603074 | 11.11° C | 71% | 1015.5 hPa | 0 mm | - | - | - |
| 1777602347 | 11.11° C | 74% | 1015.5 hPa | 0 mm | - | - | - |
| 1777601647 | 11.11° C | 75% | 1015.4 hPa | 0 mm | - | - | - |
* Rain latest hour (hover to see other rain measurements)
** Current wind speed in m/s (hover to see current wind gust speed)